[[{"header":{"parameterUnit":"m.s-1","parameterCategory":1,"la1":30.2991,"la2":30.254,"lo1":-89.0895,"lo2":-89.0444,"dy":0.0017,"dx":0.0017,"nx":28,"ny":28,"refTime":"2024-10-12T09:00:00:Z","depth":0,"parameterNumber":2,"parameterNumberName":"U-component_of_WINDS"},"data":[0,0,0,0,0,0,0,0,0,0,0,0,0,0,0,0,0,0,0,0,0,0,0,0,0,0,0,0,0,0,0,0,0,0,0,0,0,0,0,0,0,0,0,0,0,0,0,0,0,0,0,0,0,0,0,0,0,0,2.7217,2.7219,0,2.7356,2.7357,2.7359,2.7341,2.7339,2.7337,2.7335,2.7478,2.7484,2.749,0,0,0,0,0,0,0,0,0,0,0,0,0,2.6938,2.6943,2.7217,2.7219,2.7221,2.7355,2.7357,2.7359,2.7342,2.7339,2.7336,2.7334,2.7476,2.7483,2.749,0,0,0,0,0,0,0,0,0,0,0,0,0,2.7066,2.6944,2.7217,2.7228,2.7231,2.7355,2.7357,2.736,2.7342,2.7339,2.7336,2.7332,2.7474,2.7482,2.7491,2.7614,0,0,2.7518,2.7522,0,0,0,0,0,0,0,0,2.7059,2.7076,2.7225,2.7228,2.7231,2.7328,2.7311,2.7445,2.7343,2.73,2.7335,2.7331,2.7431,2.7443,2.7476,2.762,2.7626,2.7519,2.7524,2.7528,2.7531,0,0,0,0,0,0,0,2.705,2.707,2.7272,2.7227,2.7231,2.7226,2.7241,2.7336,2.7383,2.7303,2.7303,2.7319,2.7432,2.7468,2.748,2.7629,2.7519,2.7527,2.7532,2.7536,2.7877,2.788,0,0,0,0,0,0,2.7038,2.7063,2.7268,2.7276,2.7134,2.7234,2.725,2.73,2.7382,2.7391,2.7322,2.7318,2.7454,2.7469,2.7485,2.7631,2.7528,2.7536,2.7541,2.7873,2.7877,2.7881,0,0,0,0,0,0,2.7032,2.7056,2.7262,2.7169,2.7195,2.7242,2.7299,2.7305,2.7341,2.7395,2.7404,2.735,2.7452,2.7472,2.7581,2.7636,2.754,2.7548,2.7869,2.7874,2.7879,2.7926,0,0,0,0,0,0,2.7024,2.7054,2.7102,2.717,2.72,2.7356,2.7302,2.731,2.7356,2.7352,2.7424,2.7433,2.7451,2.7568,2.759,2.7646,2.7555,2.7864,2.7871,2.7878,2.792,2.7933,2.7944,0,0,0,0,0,2.7014,2.711,2.7104,2.7129,2.726,2.736,2.7377,2.7395,2.736,2.7408,2.7443,2.7431,2.7626,2.7579,2.7604,2.7664,2.786,2.7869,2.7877,2.7915,2.793,2.7944,0,0,0,0,0,0,2.7048,2.712,2.7114,2.7235,2.7291,2.7356,2.7417,2.7411,2.7479,2.7472,2.7493,2.7509,2.7618,2.7652,2.7598,2.7785,2.7739,2.7752,2.7759,2.7774,2.7786,2.7775,2.7563,0,0,0,0,0,2.707,2.7144,2.7203,2.7304,2.7333,2.737,2.7414,2.7423,2.7482,2.7506,2.7549,2.7607,2.7681,2.773,2.7801,2.7925,2.7939,2.7979,2.799,2.8,2.8011,2.8076,2.8094,2.7909,2.7909,2.7909,0,0,2.7115,2.7163,2.721,2.7312,2.7357,2.7433,2.739,2.7473,2.7529,2.7519,2.7623,2.7657,2.7723,2.7838,2.7892,2.787,2.8065,2.8011,2.8018,2.8024,2.8087,2.8104,2.812,2.7915,2.7914,2.7913,0,0,2.7236,2.7281,2.7369,2.7414,2.7481,2.7505,2.7526,2.7592,2.7613,2.7718,2.7711,2.7778,2.7907,2.7953,2.7993,2.8129,2.812,2.8152,2.8214,2.8277,2.8292,2.8305,2.8351,2.8367,2.8163,2.8164,2.8164,0,2.7284,2.7399,2.7416,2.7499,2.7543,2.7536,2.7624,2.7667,2.7755,2.7785,2.776,2.7918,2.7963,2.8088,2.812,2.8154,2.8178,2.8144,2.8288,2.8301,2.8314,2.8358,2.8376,2.8167,2.8167,2.8166,2.8166,0,2.7453,2.7532,2.7595,2.7678,2.773,2.7816,2.7845,2.7895,2.7899,2.7925,2.8031,2.8083,2.8164,2.8195,2.8201,2.832,2.8304,2.8284,2.8237,2.8334,2.8376,2.8393,2.8172,2.817,2.8169,2.8169,0,0,2.7601,2.769,2.7713,2.7749,2.7821,2.7883,2.7967,2.8045,2.8087,2.8147,2.8217,2.8325,2.8305,2.8351,2.8361,2.8417,2.8518,2.8389,2.8391,2.8409,2.8651,2.8665,2.8684,2.8513,2.8516,2.8519,2.8644,0,2.7727,2.7876,2.7892,2.8024,2.8096,2.8089,2.8162,2.8214,2.8241,2.8305,2.8335,2.8409,2.8379,2.8406,2.8461,2.8494,2.8566,2.8486,2.8577,2.858,2.8559,2.8706,2.8722,2.8838,2.8661,2.8664,2.8666,0,2.7895,2.7958,2.8097,2.8157,2.8188,2.8253,2.8324,2.8387,2.8445,2.846,2.851,2.8512,2.8598,2.8549,2.8667,2.8611,2.8649,2.8671,2.8676,2.8684,2.8628,2.8717,2.8876,2.8893,2.8692,2.869,2.8688,0,2.7986,2.8105,2.8203,2.8235,2.8308,2.8354,2.8386,2.8441,2.8486,2.8548,2.8577,2.8649,2.8688,2.8744,2.8765,2.8728,2.8881,2.8834,2.8895,2.8894,2.8927,2.8924,2.9093,2.8955,2.8954,2.8954,2.8954,0,2.8124,2.8209,2.8244,2.8304,2.8398,2.8416,2.8509,2.8539,2.8588,2.8653,2.8652,2.8713,2.8739,2.8804,2.8822,2.8915,2.8933,2.8947,2.895,2.8946,2.8944,2.8971,2.8963,2.8959,2.8958,2.8957,2.8956,0,2.8241,2.8269,2.8374,2.8434,2.8451,2.8517,2.8568,2.8625,2.865,2.8733,2.8753,2.8792,2.8868,2.8895,2.8989,2.9,2.9108,2.9106,2.9088,2.9088,2.9147,2.914,2.9337,2.9363,2.9209,2.9211,2.9212,0,2.8327,2.8392,2.8457,2.85,2.8534,2.8604,2.8649,2.8669,2.8716,2.8785,2.8834,2.8909,2.8971,2.9093,2.9129,2.92,2.9198,2.9262,2.9209,2.9202,2.9197,2.9192,2.9197,2.9272,2.9273,2.9275,2.9276,0,2.8476,2.8485,2.855,2.8619,2.8672,2.8728,2.8782,2.8817,2.8844,2.8897,2.8974,2.9021,2.9115,2.9189,2.9261,2.9295,2.9289,2.9292,2.9309,2.9305,2.9291,2.9297,2.9113,2.9287,2.9286,2.9285,2.9285,2.9284,2.8579,2.8635,2.8689,2.876,2.8802,2.8852,2.8907,2.8938,2.9003,2.908,2.9088,2.917,2.9225,2.932,2.9357,2.9421,2.9403,2.9429,2.9436,2.9441,2.9444,2.9282,2.9435,2.9434,2.9434,2.9434,2.9434,0,2.8725,2.8759,2.8825,2.8899,2.8954,2.8944,2.9002,2.9049,2.9121,2.9172,2.9232,2.9319,2.9391,2.9432,2.9503,2.9547,2.9546,2.9565,2.9561,2.9568,2.9457,2.9434,2.9564,2.9564,2.9564,2.9564,2.9564,2.9564,2.8808,2.8901,2.8917,2.903,2.9064,2.9143,2.9177,2.9222,2.9263,2.936,2.9419,2.9445,2.9492,2.9566,2.963,2.9641,2.9666,2.9686,2.9695,2.959,2.9576,2.9564,2.9542,2.9692,2.9692,2.98,2.9801,2.9802]},{"header":{"parameterUnit":"m.s-1","parameterCategory":1,"la1":30.2991,"la2":30.254,"lo1":-89.0895,"lo2":-89.0444,"dy":0.0017,"dx":0.0017,"nx":28,"ny":28,"refTime":"2024-10-12T09:00:00:Z","depth":0,"parameterNumber":3,"parameterNumberName":"V-component_of_WINDS"},"data":[0,0,0,0,0,0,0,0,0,0,0,0,0,0,0,0,0,0,0,0,0,0,0,0,0,0,0,0,0,0,0,0,0,0,0,0,0,0,0,0,0,0,0,0,0,0,0,0,0,0,0,0,0,0,0,0,0,0,4.3553,4.3553,0,4.3566,4.3566,4.3566,4.3492,4.349,4.3488,4.3486,4.3498,4.35,4.3503,0,0,0,0,0,0,0,0,0,0,0,0,0,4.3463,4.3465,4.3553,4.3553,4.3553,4.3566,4.3566,4.3566,4.3493,4.349,4.3488,4.3485,4.3497,4.35,4.3503,0,0,0,0,0,0,0,0,0,0,0,0,0,4.3491,4.3465,4.3553,4.3518,4.3515,4.3566,4.3566,4.3566,4.3493,4.349,4.3487,4.3484,4.3497,4.35,4.3503,4.3587,0,0,4.3514,4.3515,0,0,0,0,0,0,0,0,4.349,4.3495,4.3523,4.3521,4.3517,4.3524,4.3538,4.3573,4.3494,4.3502,4.3486,4.3482,4.3509,4.3511,4.3521,4.3588,4.3588,4.3514,4.3516,4.3518,4.3518,0,0,0,0,0,0,0,4.3488,4.3494,4.3558,4.3524,4.352,4.3501,4.3502,4.3545,4.3523,4.3501,4.3495,4.3498,4.3507,4.3518,4.352,4.3588,4.3514,4.3517,4.3519,4.352,4.3722,4.3725,0,0,0,0,0,0,4.3491,4.3493,4.3558,4.3558,4.3496,4.3505,4.3506,4.3525,4.3522,4.3519,4.3501,4.3494,4.3513,4.3517,4.3521,4.3616,4.3517,4.3521,4.3523,4.3719,4.3723,4.3726,0,0,0,0,0,0,4.3489,4.3497,4.3557,4.3524,4.353,4.351,4.3532,4.3527,4.3537,4.3522,4.3518,4.3515,4.3511,4.3516,4.3571,4.3616,4.3522,4.3525,4.3715,4.372,4.3724,4.381,0,0,0,0,0,0,4.3487,4.3497,4.353,4.3525,4.3532,4.3608,4.3535,4.353,4.3544,4.3536,4.3535,4.3532,4.3509,4.3566,4.3574,4.3619,4.3528,4.371,4.3717,4.3723,4.3803,4.3817,4.3829,0,0,0,0,0,4.3484,4.3554,4.3532,4.354,4.3573,4.3611,4.3614,4.3587,4.3548,4.3579,4.3569,4.3532,4.361,4.3572,4.3581,4.3627,4.3707,4.3715,4.3722,4.3797,4.3814,4.3829,0,0,0,0,0,0,4.3564,4.3553,4.3528,4.3599,4.3606,4.3598,4.3637,4.3607,4.3625,4.3617,4.3582,4.3582,4.3642,4.364,4.3599,4.3707,4.3652,4.3661,4.3706,4.3722,4.3735,4.3733,4.3531,0,0,0,0,0,4.359,4.3623,4.3611,4.3674,4.3679,4.3658,4.3674,4.3652,4.3658,4.366,4.3654,4.3661,4.3687,4.3705,4.3728,4.3803,4.38,4.3839,4.3852,4.3863,4.3871,4.3908,4.3924,4.3751,4.375,4.375,0,0,4.3644,4.3642,4.3665,4.369,4.3693,4.3726,4.3661,4.37,4.3723,4.3666,4.3717,4.3713,4.3718,4.3782,4.3811,4.3783,4.3918,4.3873,4.3881,4.3883,4.3917,4.3934,4.3948,4.3756,4.3755,4.3754,0,0,4.3759,4.3762,4.3813,4.3817,4.3823,4.3808,4.382,4.3817,4.3811,4.3862,4.3819,4.3846,4.3892,4.3897,4.3905,4.402,4.3985,4.4028,4.4097,4.4133,4.4146,4.4158,4.4197,4.4211,4.4037,4.4037,4.4037,0,4.3825,4.3874,4.3844,4.3884,4.3896,4.3845,4.3896,4.3902,4.3915,4.3923,4.3892,4.3946,4.3947,4.401,4.4038,4.4047,4.4059,4.4027,4.4147,4.4159,4.4169,4.4205,4.422,4.4042,4.4041,4.4041,4.404,0,4.3954,4.3988,4.4029,4.4041,4.4058,4.4104,4.4079,4.4099,4.4075,4.4063,4.4114,4.4112,4.4133,4.4147,4.4125,4.4207,4.4189,4.4153,4.4097,4.4191,4.4225,4.4238,4.4049,4.4047,4.4046,4.4045,0,0,4.412,4.4113,4.4129,4.4132,4.4134,4.4159,4.4202,4.4222,4.4238,4.4249,4.4282,4.4321,4.4287,4.4297,4.4275,4.4307,4.4395,4.4267,4.4266,4.4289,4.4482,4.4507,4.4524,4.4372,4.4375,4.4377,4.4481,0,4.4229,4.4302,4.4275,4.4348,4.4378,4.433,4.4366,4.4371,4.4361,4.4384,4.4372,4.4399,4.4354,4.4359,4.4389,4.4378,4.4433,4.437,4.4401,4.4403,4.4399,4.4542,4.4569,4.4667,4.4494,4.4496,4.4498,0,4.4367,4.4382,4.4458,4.4452,4.4463,4.4497,4.4511,4.4535,4.4538,4.4528,4.4538,4.4508,4.4548,4.4493,4.4547,4.4505,4.4516,4.4513,4.4516,4.4516,4.4454,4.4543,4.4697,4.4711,4.4518,4.4517,4.4515,0,4.4477,4.4516,4.4566,4.4571,4.4566,4.459,4.4589,4.4589,4.4601,4.4614,4.4622,4.464,4.4649,4.4663,4.4638,4.4601,4.4695,4.4638,4.4686,4.4687,4.4706,4.4705,4.4862,4.4718,4.4718,4.4717,4.4717,0,4.4601,4.4649,4.4615,4.4645,4.4697,4.4665,4.4717,4.471,4.471,4.4738,4.4698,4.4725,4.4692,4.4715,4.4696,4.4742,4.4747,4.4739,4.4733,4.4741,4.4742,4.4746,4.4738,4.4721,4.472,4.472,4.4719,0,4.4732,4.4711,4.4762,4.4752,4.475,4.4789,4.478,4.4807,4.4793,4.4829,4.4835,4.4814,4.4839,4.4816,4.4841,4.4828,4.4888,4.4873,4.4886,4.4881,4.4929,4.4924,4.5093,4.5112,4.4958,4.496,4.4961,0,4.4812,4.4847,4.484,4.4855,4.4856,4.4882,4.4894,4.4864,4.4879,4.4884,4.491,4.4931,4.4947,4.4989,4.4975,4.4993,4.4977,4.5035,4.4979,4.4986,4.4975,4.4972,4.4974,4.5046,4.5048,4.5049,4.505,0,4.4954,4.4941,4.4961,4.4976,4.4991,4.5002,4.501,4.5025,4.4993,4.5011,4.5036,4.5048,4.5072,4.5093,4.5106,4.5104,4.5072,4.5068,4.508,4.5087,4.5092,4.5087,4.4915,4.5064,4.5063,4.5062,4.5061,4.506,4.506,4.5088,4.5086,4.5109,4.5111,4.5118,4.5142,4.5131,4.5151,4.5168,4.5149,4.5179,4.5179,4.5193,4.5195,4.5217,4.5193,4.521,4.5214,4.5218,4.5224,4.5091,4.522,4.5219,4.5219,4.5219,4.5218,0,4.5197,4.5194,4.5215,4.5225,4.5242,4.5211,4.5217,4.5233,4.5259,4.5262,4.5277,4.5305,4.5325,4.5313,4.5329,4.5349,4.5335,4.5354,4.5351,4.5351,4.5246,4.5233,4.5366,4.5366,4.5366,4.5366,4.5366,4.5366,4.5271,4.5316,4.5303,4.5347,4.5343,4.5371,4.5377,4.5383,4.5385,4.5417,4.5433,4.5425,4.5421,4.5437,4.5454,4.5449,4.5456,4.5481,4.5472,4.5373,4.5359,4.5345,4.5332,4.5484,4.5484,4.5574,4.5575,4.5576]}]]